Flag for Poland Weather past 2 weeks in Włocławek, Poland

Now
54 °F

Overcast.


Feels Like: 54 °F
Forecast: 48 / 70 °F
Wind: 1 mph from Southwest

Location: Plock

Current Time: Aug 21, 2014 at 10:18:45 AM

Latest Report: Aug 21, 2014 at 9:00 AM


Visibility: 22 mi

Pressure: 30.01 "Hg

Humidity: 79%

Dew point: 48 °F

Location of WłocławekLocation

Historic Weather in Włocławek — Graph

°F

Włocławek temperature yesterday

Maximum temperature yesterday: 66 °F (at 5:00 PM)
Minimum temperature yesterday: 49 °F (at 11:00 PM)
Average temperature yesterday: 60 °F

Past Weeks' High & Low Weather Summary

 TemperatureHumidityPressure
High83 °F (Aug 10, 5:00 PM)99% (Aug 9, 6:00 AM)30.01 "Hg (Aug 9, 6:00 AM)
Low47 °F (Aug 21, 4:00 AM)42% (Aug 15, 4:00 PM)29.56 "Hg (Aug 14, 4:00 AM)
Average65 °F76%29.87 "Hg
* Reported Aug 6 9:00 AM — Aug 21 9:00 AM, Włocławek, Weather by CustomWeather, © 2014

Note: Actual official high and low records may vary slightly from our data, if they occured in-between our weather recording intervals... More about our weather records

Advertising

Włocławek weather history for previous 24 hours

 ConditionsComfort  
Time TempWeatherWind HumidityBarometerVisibility
9:00 AM
Aug 21
54 °FOvercast.1 mph79%30.01 "Hg22 mi
8:00 AM51 °FOvercast.No wind90%30.01 "Hg9 mi
6:00 AM47 °FOvercast.1 mph94%30.01 "Hg9 mi
5:00 AM47 °FPassing clouds.1 mph95%30.00 "Hg7 mi
4:00 AM47 °FPassing clouds.1 mph93%30.01 "Hg8 mi
3:00 AM48 °FPassing clouds.1 mph92%30.01 "Hg9 mi
2:00 AM48 °FPassing clouds.1 mph92%30.01 "Hg12 mi
1:00 AM48 °FPassing clouds.1 mph88%30.01 "Hg12 mi
12:00 AM51 °FPassing clouds.1 mph82%30.00 "Hg22 mi
11:00 PM
Aug 20
49 °FPassing clouds.1 mph88%29.99 "Hg16 mi
10:00 PM54 °FPassing clouds.1 mph67%29.99 "Hg12 mi
9:00 PM58 °FPassing clouds.2 mph59%29.98 "Hg16 mi
8:00 PM60 °FPassing clouds.1 mph51%29.96 "Hg31 mi
7:00 PM64 °FScattered clouds.3 mph45%29.95 "Hg31 mi
6:00 PM66 °FScattered clouds.5 mph42%29.95 "Hg28 mi
5:00 PM66 °FPassing clouds.5 mph43%29.94 "Hg25 mi
4:00 PM65 °FScattered clouds.5 mph42%29.94 "Hg25 mi
3:00 PM66 °FScattered clouds.6 mph45%29.94 "Hg28 mi
2:00 PM64 °FScattered clouds.5 mph47%29.94 "Hg25 mi
1:00 PM65 °FScattered clouds.7 mph46%29.93 "Hg19 mi
12:00 PM64 °FScattered clouds.6 mph50%29.93 "Hg19 mi
11:00 AM64 °FPassing clouds.6 mph55%29.92 "Hg25 mi
10:00 AM61 °FPassing clouds.6 mph59%29.92 "Hg22 mi
Weather by CustomWeather, © 2014

See weather overviewHow to use our weather pages